Main page
Satellite images Climate Cyclones Lightning AirportsFAQ Languages Contact Newsletter About
Weather : Europe Africa North America South America Asia Australia-Oceania Others

5361, Hat Yai, Hat Yai International Airport

latitude: , longitude: Thailand, elevation: 06-55N m


METAR: VTSS 241300Z 06007KT 9999 FEW020 27/24 Q1011 NOSIG